Location: Gull Harbor
(47.1000°N, 122.9000°W)
Time: 12:35:36
(UTC-07:00)

BlueWalker 3 - Pass Details

Date: 02 February 2023
Orbit: 497 x 514 km, 53.2° (Epoch: 01 April)

Event Time Altitude Azimuth Distance (km) Brightness Sun altitude
Rises 20:13:31 0° 296° (WNW) 2,613 6.6 -30.4°
Reaches altitude 10° 20:15:47 10° 303° (WNW) 1,730 5.4 -30.8°
Enters shadow 20:16:57 18° 311° (NW) 1,307 4.6 -31.0°
